Regional Weather Roundup
Issued by NWS

Home | Current Version | Previous Version | Text Only | Print | Product List | Glossary Off
Versions: 1 2 3 4 5 6 7 8 9 10 11 12 13 14 15 16 17 18 19 20 21 22 23 24 25 26 27 28 29 30 31 32 33 34 35 36 37 38 39 40 41 42 43 44 45 46 47 48 49 50

000
ASUS43 KFSD 231902
RWRSD

WEATHER ROUNDUP FOR SOUTH DAKOTA
NATIONAL WEATHER SERVICE SIOUX FALLS SD
200 PM CDT TUE MAY 23 2017

NOTE: "FAIR" INDICATES FEW OR NO CLOUDS BELOW 12,000 FEET WITH NO
SIGNIFICANT WEATHER AND/OR OBSTRUCTIONS TO VISIBILITY.


SDZ001>005-009-010-012>017-232000-
NORTHWEST AND NORTH CENTRAL SOUTH DAKOTA

CITY           SKY/WX    TMP DP  RH WIND       PRES   REMARKS
BUFFALO          N/A     64  34  32 N16G25    30.05F
FAITH            N/A     58  34  40 N25G35    30.07F
MOBRIDGE       CLOUDY    55  37  50 N17G25    30.03F
$$

SDZ012>016-024>037-041>051-057-063-072>074-232000-
SOUTHWEST AND SOUTH CENTRAL SOUTH DAKOTA

CITY           SKY/WX    TMP DP  RH WIND       PRES   REMARKS
RAPID CTY ARPT CLOUDY    59  35  40 N17G28    30.10F
PIERRE         LGT RAIN  58  39  49 N21G31    30.01F
CUSTER         MOSUNNY   54  23  30 N16G30    30.12F
ELLSWORTH AFB  PTSUNNY   60  33  36 N22G33    30.10F
PHILIP         CLOUDY    60  35  39 N26G35    30.04F
PINE RIDGE     CLOUDY    57  37  47 N16G24    30.10F
SPEARFISH      FAIR      59  36  41 NW17G23   30.14F
WINNER         CLOUDY    54  43  66 N15G25    30.00F
$$

SDZ004>011-016>023-039-040-232000-
NORTHEAST SOUTH DAKOTA

CITY           SKY/WX    TMP DP  RH WIND       PRES   REMARKS
ABERDEEN       CLOUDY    52  42  69 N22G31    29.99S
WATERTOWN      CLOUDY    52  45  77 N22G30    29.89S
BROOKINGS      LGT RAIN  50  45  83 N20       29.88S
SISSETON         N/A     51  49  92 N18       29.91F
$$

SDZ017-020-022-023-036>040-048>070-232000-
SOUTHEAST SOUTH DAKOTA

CITY           SKY/WX    TMP DP  RH WIND       PRES   REMARKS
SIOUX FALLS    CLOUDY    56  47  71 N16       29.86F
HURON          CLOUDY    55  45  68 N22       29.94F
CHAMBERLAIN    CLOUDY    55  43  65 NW15G21   29.98F
MITCHELL       CLOUDY    53  47  79 N26G33    29.94F
YANKTON        CLOUDY    51  47  86 N14G24    29.90F
$$

ABBREVIATIONS USED IN REMARKS
   TC - TEMPERATURE IN CELSIUS
  WCI - WIND CHILL INDEX
   HX - HEAT INDEX
  VSB - VISIBILITY





USA.gov is the U.S. government's official web portal to all federal, state and local government web resources and services.